N1OTX Weather Reports


time (UTC)temp
F
wind
direction
speed
knots
gust
knots
rain 1hr
in
rain 24hr
in
rain mn
in
humidity
%
barometer
mb
20260510163028 67 145 1.7 6.1 0.00 0.42 0.00 70 1012.4
20260510162608 67 187 1.7 6.1 0.00 0.42 0.00 70 1012.5
20260510162048 67 149 1.7 6.1 0.00 0.42 0.00 70 1012.6
20260510161528 67 233 0.9 6.1 0.00 0.42 0.00 72 1012.6
20260510161027 66 195 1.7 5.2 0.00 0.42 0.00 71 1012.7
20260510160527 66 120 0.9 3.5 0.00 0.42 0.00 73 1012.5
20260510160027 66 273 0.9 7.0 0.00 0.42 0.00 73 1012.6
20260510155529 66 281 1.7 7.0 0.00 0.42 0.00 74 1012.5
20260510155029 65 160 1.7 6.1 0.00 0.42 0.00 72 1012.5
20260510154529 65 181 1.7 5.2 0.00 0.42 0.00 74 1012.6
20260510154109 64 184 1.7 5.2 0.00 0.42 0.00 73 1012.7
20260510153528 64 221 1.7 5.2 0.00 0.42 0.00 74 1012.7
20260510153049 64 156 1.7 7.0 0.00 0.42 0.00 73 1012.7
20260510152528 64 205 1.7 7.0 0.00 0.42 0.00 74 1012.9
20260510152028 63 210 0.9 3.5 0.00 0.42 0.00 75 1012.9
20260510151528 62 199 0.9 3.5 0.00 0.42 0.00 81 1012.8
20260510151028 61 139 0.9 1.7 0.00 0.42 0.00 81 1012.7
20260510150527 61 131 0.0 0.9 0.00 0.42 0.00 82 1012.8
20260510150027 60 181 0.0 0.9 0.00 0.42 0.00 83 1012.8
20260510145527 60 182 0.0 3.5 0.00 0.43 0.00 82 1012.9
20260510145027 59 204 0.0 3.5 0.00 0.43 0.00 81 1012.8
20260510144527 59 175 0.0 2.6 0.00 0.43 0.00 81 1012.9
20260510144027 59 244 0.9 2.6 0.00 0.43 0.00 82 1013.0
20260510143547 59 264 0.9 3.5 0.00 0.43 0.00 81 1013.0
20260510143027 60 175 0.9 3.5 0.00 0.43 0.00 81 1013.0
20260510142526 60 181 0.9 2.6 0.00 0.43 0.00 83 1013.1
20260510142026 59 143 0.9 3.5 0.00 0.43 0.00 83 1013.1
20260510141528 60 187 0.9 3.5 0.00 0.43 0.00 82 1013.1
20260510141028 59 173 0.0 2.6 0.00 0.43 0.00 83 1013.0
20260510140528 59 150 0.0 1.7 0.00 0.43 0.00 82 1012.9
20260510140028 59 135 0.9 2.6 0.00 0.44 0.00 83 1013.0
20260510135527 59 206 0.9 2.6 0.00 0.44 0.00 82 1012.9
20260510135027 59 158 0.9 2.6 0.00 0.44 0.00 83 1012.8
20260510134527 59 128 0.9 3.5 0.00 0.44 0.00 81 1012.8
20260510134029 60 133 0.9 2.6 0.00 0.44 0.00 82 1012.8
20260510133549 59 251 0.9 3.5 0.00 0.44 0.00 83 1012.8
20260510133029 59 167 0.9 3.5 0.00 0.44 0.00 83 1012.8
20260510132529 59 177 1.7 6.1 0.00 0.44 0.00 83 1012.8
20260510132028 58 176 0.9 1.7 0.00 0.44 0.00 87 1012.7
20260510131528 57 205 0.0 1.7 0.00 0.45 0.00 89 1012.7
20260510131028 57 215 0.0 1.7 0.00 0.45 0.00 88 1012.8
20260510130528 57 261 0.9 2.6 0.00 0.45 0.00 89 1012.8
20260510130028 56 149 0.9 2.6 0.00 0.45 0.00 88 1012.7
20260510125528 56 158 0.9 2.6 0.00 0.45 0.00 89 1012.8
20260510125028 56 207 0.0 1.7 0.00 0.45 0.00 91 1012.8
20260510124528 55 181 0.9 7.0 0.00 0.45 0.00 92 1012.8
20260510124028 55 188 1.7 7.0 0.00 0.45 0.00 92 1013.0
20260510123527 54 202 0.9 7.0 0.00 0.45 0.00 92 1013.0
20260510123029 54 150 0.9 2.6 0.00 0.45 0.00 94 1013.1
20260510122529 54 69 0.9 3.5 0.00 0.45 0.00 94 1013.2
20260510122029 54 123 0.0 0.9 0.00 0.45 0.00 94 1013.1
20260510121529 54 209 0.0 1.7 0.00 0.45 0.00 94 1013.0
20260510121029 54 235 0.0 2.6 0.00 0.45 0.00 94 1013.0
20260510120528 54 218 0.9 2.6 0.00 0.45 0.00 95 1012.7
20260510120028 53 192 0.0 1.7 0.00 0.45 0.00 96 1012.8
20260510115528 53 171 0.9 1.7 0.00 0.45 0.00 95 1012.7
20260510115028 53 218 0.0 1.7 0.00 0.45 0.00 95 1012.9
20260510114528 53 227 0.0 1.7 0.00 0.46 0.00 96 1013.0
20260510114027 53 207 0.9 2.6 0.00 0.46 0.00 95 1012.7
20260510113527 53 143 0.0 2.6 0.00 0.46 0.00 95 1012.3
20260510113027 53 189 0.9 5.2 0.00 0.46 0.00 94 1012.4
20260510112527 54 215 0.9 3.5 0.00 0.46 0.00 94 1012.3
20260510112109 54 197 1.7 5.2 0.00 0.46 0.00 93 1012.4
20260510111529 54 151 1.7 8.7 0.00 0.46 0.00 94 1012.4
20260510111029 54 144 0.9 1.7 0.00 0.46 0.00 95 1012.4
20260510110529 53 121 0.9 2.6 0.00 0.46 0.00 96 1012.5
20260510110028 53 180 0.9 3.5 0.00 0.46 0.00 97 1012.5
20260510105528 52 162 0.9 3.5 0.00 0.46 0.00 98 1012.3
20260510105028 52 118 1.7 2.6 0.00 0.46 0.00 98 1012.2
20260510104528 52 160 0.9 1.7 0.00 0.46 0.00 98 1012.3
20260510104028 52 190 0.0 1.7 0.00 0.46 0.00 98 1012.4
20260510103528 51 162 0.9 2.6 0.00 0.46 0.00 97 1012.4
20260510103028 51 176 0.0 0.9 0.00 0.46 0.00 97 1012.6
20260510102528 51 176 0.0 3.5 0.00 0.46 0.00 97 1012.7
20260510102048 51 171 0.0 3.5 0.00 0.46 0.00 98 1012.6
20260510101527 51 179 0.0 0.9 0.00 0.46 0.00 97 1012.5
20260510101049 51 181 0.0 0.9 0.00 0.46 0.00 97 1012.5
20260510100529 51 184 0.0 1.7 0.00 0.46 0.00 97 1012.6
20260510100029 51 209 0.0 1.7 0.00 0.46 0.00 97 1012.7
20260510095528 51 172 0.9 3.5 0.00 0.46 0.00 97 1012.6
20260510095049 51 208 0.0 1.7 0.00 0.46 0.00 97 1012.6
20260510094528 51 218 0.0 1.7 0.00 0.46 0.00 97 1012.5
20260510094028 51 187 0.9 2.6 0.00 0.46 0.00 97 1012.4
20260510093528 51 173 0.0 3.5 0.00 0.46 0.00 98 1012.4
20260510093028 51 146 0.0 3.5 0.00 0.46 0.00 97 1012.2
20260510092528 51 0.0 0.0 0.00 0.46 0.00 97 1012.2
20260510092028 51 133 0.0 1.7 0.00 0.46 0.00 97 1012.1
20260510091547 51 182 0.0 1.7 0.00 0.46 0.00 98 1012.1
20260510091048 51 255 0.0 0.9 0.00 0.46 0.00 98 1012.0
20260510090609 51 0.0 0.9 0.00 0.46 0.00 98 1012.0
20260510090027 51 211 0.0 0.9 0.00 0.46 0.00 98 1011.9
20260510085549 51 0.0 0.9 0.00 0.46 0.00 98 1011.7
20260510085029 51 212 0.0 0.9 0.00 0.46 0.00 98 1011.7
20260510084529 52 212 0.0 0.9 0.00 0.46 0.00 98 1011.8
20260510084049 51 213 0.0 0.9 0.00 0.46 0.00 98 1011.6
20260510083528 52 169 0.0 5.2 0.00 0.46 0.00 98 1011.7
20260510083028 52 148 0.9 1.7 0.00 0.46 0.00 99 1011.7
20260510082528 52 126 0.0 1.7 0.00 0.46 0.00 99 1011.6
20260510082028 52 156 0.0 0.9 0.00 0.46 0.00 99 1011.9
20260510081528 52 151 0.0 1.7 0.00 0.46 0.00 99 1012.0
20260510081028 51 184 0.0 3.5 0.00 0.46 0.00 99 1012.0
20260510080527 51 179 0.0 2.6 0.00 0.46 0.00 99 1012.0
20260510080027 51 180 0.9 2.6 0.00 0.46 0.00 99 1011.9
20260510075527 51 145 0.0 1.7 0.00 0.46 0.00 99 1011.8
20260510075027 51 194 0.0 0.9 0.00 0.46 0.00 99 1011.9
20260510074527 51 0.0 0.0 0.00 0.46 0.00 99 1011.9
20260510074047 51 195 0.0 0.9 0.00 0.46 0.00 99 1011.8
20260510073529 51 195 0.0 0.9 0.00 0.46 0.00 99 1011.8
20260510073028 51 195 0.0 1.7 0.00 0.46 0.00 99 1011.6
20260510072527 51 195 0.9 2.6 0.00 0.46 0.00 99 1011.5
20260510072027 51 207 0.0 0.9 0.00 0.46 0.00 99 1011.5
20260510071547 51 207 0.0 0.9 0.00 0.46 0.00 99 1011.3
20260510071028 51 197 0.0 1.7 0.00 0.46 0.00 99 1011.4
20260510070528 51 221 0.0 2.6 0.00 0.46 0.00 99 1011.2
20260510070029 51 208 0.0 2.6 0.00 0.46 0.00 99 1011.2
20260510065528 51 191 0.9 1.7 0.00 0.46 0.00 99 1011.2
20260510065028 51 188 0.0 0.9 0.00 0.46 0.00 99 1011.3
20260510064528 51 191 0.0 0.9 0.00 0.46 0.00 99 1011.3
20260510064028 51 190 0.0 0.9 0.00 0.46 0.00 99 1011.5
20260510063528 51 194 0.0 3.5 0.00 0.46 0.00 99 1011.7
20260510063047 51 189 0.0 2.6 0.00 0.46 0.00 99 1011.7
20260510062527 51 179 0.0 2.6 0.00 0.46 0.00 99 1011.6
20260510062027 51 0.0 0.0 0.00 0.46 0.00 99 1011.7
20260510061527 51 0.0 0.0 0.00 0.46 0.00 99 1011.7
20260510061029 51 0.0 0.0 0.00 0.46 0.00 99 1011.6
20260510060549 51 0.0 0.0 0.00 0.46 0.00 99 1011.5
20260510060029 51 0.0 0.0 0.00 0.46 0.00 99 1011.3
20260510055527 51 0.0 0.0 0.00 0.46 0.00 99 1011.3
20260510055027 51 0.0 0.0 0.00 0.46 0.00 99 1011.4
20260510054526 51 0.0 0.0 0.00 0.46 0.00 99 1011.5
20260510054048 51 0.0 0.0 0.00 0.46 0.00 99 1011.7
20260510053528 51 0.0 0.0 0.00 0.46 0.00 99 1011.7
20260510053028 51 0.0 0.0 0.00 0.46 0.00 99 1011.8
20260510052527 51 0.0 0.0 0.00 0.46 0.00 99 1011.8
20260510052108 51 0.0 0.0 0.00 0.46 0.00 99 1011.7
20260510051548 51 0.0 0.0 0.00 0.46 0.00 99 1011.7
20260510051027 51 0.0 0.0 0.00 0.46 0.00 99 1011.8
20260510050527 51 0.0 0.0 0.00 0.46 0.00 99 1011.8
20260510050027 51 0.0 0.0 0.00 0.46 0.00 99 1011.8
20260510045527 51 0.0 0.0 0.00 0.46 0.00 99 1011.9
20260510045027 51 0.0 0.0 0.01 0.46 0.00 99 1011.9
20260510044527 51 0.0 0.0 0.01 0.46 0.00 99 1011.9
20260510044027 51 0.0 0.0 0.01 0.46 0.00 98 1011.9
20260510043547 51 0.0 0.0 0.01 0.46 0.00 98 1012.0
20260510043026 51 147 0.0 3.5 0.01 0.46 0.00 98 1012.0
20260510042548 51 172 0.9 3.5 0.01 0.46 0.00 98 1011.9
20260510042028 51 163 0.0 2.6 0.01 0.46 0.00 98 1011.9
20260510041528 51 159 0.9 3.5 0.01 0.46 0.00 98 1011.7
20260510041108 51 118 0.9 7.8 0.01 0.46 0.00 98 1011.5
20260510040548 51 110 0.0 0.9 0.00 0.45 0.00 98 1011.7
20260510040028 51 128 0.9 3.5 0.00 0.45 0.00 98 1011.8
20260510035527 51 154 0.9 2.6 0.00 0.45 0.45 98 1011.9
20260510035027 51 205 0.0 0.9 0.00 0.45 0.45 98 1011.9
20260510034527 51 0.0 0.0 0.00 0.45 0.45 98 1012.0
20260510034027 51 0.0 0.0 0.00 0.45 0.45 98 1012.0
20260510033527 51 222 0.0 0.9 0.00 0.45 0.45 97 1012.2
20260510033026 52 0.0 0.0 0.00 0.45 0.45 97 1012.2
20260510032526 52 222 0.0 0.9 0.00 0.45 0.45 97 1012.3
20260510032026 52 0.0 0.0 0.00 0.45 0.45 96 1012.2
20260510031548 52 196 0.0 1.7 0.00 0.45 0.45 96 1012.2
20260510031028 52 134 0.0 1.7 0.00 0.45 0.45 95 1012.3
20260510030528 52 149 0.0 2.6 0.00 0.45 0.45 95 1012.3
20260510030028 52 172 0.9 3.5 0.00 0.45 0.45 96 1012.3
20260510025528 52 124 0.9 2.6 0.00 0.45 0.45 96 1012.4
20260510025027 52 165 0.0 3.5 0.00 0.45 0.45 96 1012.4
20260510024527 52 160 1.7 6.1 0.00 0.45 0.45 96 1012.3
20260510024027 52 171 0.9 2.6 0.00 0.45 0.45 96 1012.5
20260510023527 52 219 0.9 3.5 0.00 0.45 0.45 96 1012.6
20260510023029 52 174 0.0 2.6 0.00 0.45 0.45 96 1012.5
20260510022528 52 122 1.7 7.0 0.00 0.45 0.45 96 1012.6
20260510022028 52 159 0.9 7.0 0.00 0.45 0.45 96 1012.6
20260510021528 52 156 1.7 5.2 0.00 0.45 0.45 96 1012.6
20260510021028 52 188 0.9 3.5 0.00 0.45 0.45 97 1012.6
20260510020528 52 177 2.6 8.7 0.00 0.44 0.44 97 1012.7
20260510020028 52 190 1.7 8.7 0.00 0.44 0.44 99 1012.7
20260510015527 52 152 1.7 6.1 0.00 0.44 0.44 99 1012.7
20260510015048 52 178 1.7 7.8 0.00 0.44 0.44 99 1012.8
20260510014527 52 194 0.9 5.2 0.00 0.44 0.44 99 1012.8
20260510014027 52 133 0.9 5.2 0.00 0.44 0.44 99 1012.7
20260510013527 52 196 0.9 2.6 0.00 0.44 0.44 99 1012.8
20260510013026 51 196 0.9 1.7 0.01 0.44 0.44 99 1012.9
20260510012528 51 157 0.0 0.9 0.01 0.44 0.44 99 1012.9
20260510012028 50 0.0 0.9 0.01 0.44 0.44 99 1012.7
20260510011548 50 157 0.0 1.7 0.02 0.44 0.44 99 1012.7
20260510011048 49 0.0 0.0 0.02 0.44 0.44 99 1012.7
20260510010527 49 0.0 0.0 0.02 0.44 0.44 99 1012.7
20260510010028 49 0.0 0.0 0.03 0.44 0.44 99 1012.7
20260510005527 49 0.0 0.0 0.04 0.44 0.44 99 1012.7
20260510005029 49 0.0 0.0 0.06 0.44 0.44 99 1012.7
20260510004529 49 0.0 0.0 0.07 0.44 0.44 99 1012.7
20260510004049 49 0.0 0.0 0.08 0.44 0.44 99 1012.7
20260510003549 49 146 0.0 0.9 0.08 0.44 0.44 99 1012.7
20260510003029 49 0.0 0.0 0.09 0.44 0.44 99 1012.7
20260510002529 49 0.0 0.0 0.10 0.44 0.44 99 1012.7
20260510002028 49 145 0.0 0.9 0.11 0.43 0.43 99 1012.7
20260510001528 49 0.0 0.0 0.12 0.43 0.43 99 1012.8
20260510001028 49 0.0 0.0 0.13 0.42 0.42 99 1012.9
20260510000528 49 0.0 0.0 0.13 0.42 0.42 99 1013.0
20260510000028 49 0.0 0.0 0.14 0.42 0.42 99 1013.0
20260509235529 49 137 0.0 0.9 0.15 0.40 0.40 99 1013.0
20260509235028 49 0.0 0.0 0.14 0.38 0.38 99 1013.1
20260509234527 49 122 0.0 0.9 0.14 0.37 0.37 99 1013.1
20260509234050 49 0.0 0.0 0.13 0.36 0.36 99 1013.0
20260509233529 49 106 0.0 0.9 0.13 0.36 0.36 99 1012.9
20260509233029 49 0.0 0.0 0.13 0.35 0.35 99 1012.8
20260509232529 49 106 0.0 0.9 0.12 0.34 0.34 99 1012.9
20260509232029 49 106 0.0 0.9 0.11 0.32 0.32 99 1012.9
20260509231528 49 105 0.0 0.9 0.10 0.31 0.31 99 1012.8
20260509231028 49 105 0.0 1.7 0.09 0.30 0.30 99 1012.7
20260509230528 49 109 0.9 1.7 0.08 0.29 0.29 99 1012.6
20260509230028 49 65 0.9 1.7 0.08 0.28 0.28 99 1012.9
20260509225528 49 21 0.0 0.9 0.06 0.26 0.26 99 1012.8
20260509225028 49 0.0 0.0 0.06 0.24 0.24 99 1012.6
20260509224528 50 0.0 0.0 0.05 0.23 0.23 99 1012.6
20260509224027 50 0.0 0.0 0.05 0.23 0.23 99 1012.5
20260509223528 50 0.0 0.0 0.05 0.22 0.22 99 1012.4
20260509223029 50 0.0 0.0 0.05 0.22 0.22 99 1012.4
20260509222529 50 0.0 0.0 0.05 0.22 0.22 98 1012.4
20260509222029 50 0.0 0.0 0.06 0.22 0.22 98 1012.5
20260509221529 50 0.0 0.0 0.06 0.21 0.21 98 1012.5
20260509221029 50 0.0 0.0 0.07 0.21 0.21 98 1012.6
20260509220528 50 0.0 0.0 0.07 0.21 0.21 98 1012.6
20260509220028 50 0.0 0.0 0.08 0.20 0.20 98 1012.5
20260509215528 50 5 0.0 0.9 0.09 0.20 0.20 98 1012.5
20260509215028 50 0.0 0.0 0.08 0.18 0.18 98 1012.5
20260509214527 50 0.0 0.0 0.08 0.18 0.18 98 1012.4
20260509214048 50 300 0.0 0.9 0.08 0.17 0.17 98 1012.3
20260509213548 50 0.0 0.0 0.08 0.17 0.17 98 1012.4
20260509213027 50 297 0.0 0.9 0.08 0.17 0.17 98 1012.4
20260509212528 50 42 0.9 2.6 0.08 0.17 0.17 98 1012.4
20260509212028 50 115 0.0 1.7 0.08 0.16 0.16 97 1012.4
20260509211527 50 305 0.0 0.9 0.08 0.15 0.15 97 1012.4
20260509211027 50 304 0.0 2.6 0.09 0.14 0.14 97 1012.3
20260509210527 50 332 0.0 2.6 0.09 0.14 0.14 96 1012.2
20260509210027 50 79 0.9 3.5 0.07 0.12 0.12 96 1012.3
20260509205527 51 11 0.0 0.9 0.07 0.11 0.11 96 1012.1
20260509205027 51 54 0.0 0.9 0.07 0.11 0.11 96 1012.3
20260509204547 51 0.0 0.0 0.06 0.10 0.10 95 1012.3
20260509204027 51 0.0 0.0 0.06 0.10 0.10 95 1012.2
20260509203527 51 0.0 0.0 0.05 0.09 0.09 95 1012.3
20260509203026 51 0.0 0.0 0.05 0.09 0.09 94 1012.3
20260509202526 52 0.0 0.0 0.04 0.08 0.08 93 1012.4
20260509202029 52 79 0.0 0.9 0.04 0.07 0.07 92 1012.4
20260509201528 52 79 0.0 0.9 0.03 0.07 0.07 92 1012.4
20260509201028 53 84 0.0 1.7 0.02 0.05 0.05 90 1012.3
20260509200608 53 93 0.0 1.7 0.01 0.05 0.05 89 1012.4
20260509200027 53 92 0.0 1.7 0.01 0.05 0.05 87 1012.4
20260509195549 53 104 0.0 2.6 0.00 0.04 0.04 85 1012.5
20260509195048 54 77 0.9 1.7 0.00 0.04 0.04 85 1012.5
20260509194548 54 79 0.9 2.6 0.00 0.04 0.04 84 1012.5
20260509194028 54 52 0.0 1.7 0.00 0.04 0.04 84 1012.5
20260509193529 54 73 0.0 2.6 0.00 0.04 0.04 84 1012.6
20260509193048 54 70 0.0 1.7 0.00 0.04 0.04 84 1012.4
20260509192527 54 75 0.0 2.6 0.00 0.04 0.04 84 1012.5
20260509192028 54 79 0.9 6.1 0.00 0.04 0.04 83 1012.3
20260509191527 54 84 0.9 2.6 0.00 0.04 0.04 84 1012.4
20260509191028 54 121 0.0 2.6 0.00 0.04 0.04 85 1012.2
20260509190527 54 86 0.9 5.2 0.00 0.04 0.04 84 1012.3
20260509190029 54 76 0.9 2.6 0.00 0.04 0.04 84 1012.3
20260509185529 54 95 0.9 5.2 0.00 0.04 0.04 85 1012.2
20260509185048 54 88 0.9 2.6 0.00 0.04 0.04 84 1012.3
20260509184528 54 267 0.9 1.7 0.00 0.04 0.04 84 1012.4
20260509184028 54 154 0.0 0.9 0.00 0.04 0.04 85 1012.1
20260509183528 53 74 0.9 6.1 0.00 0.04 0.04 85 1012.2
20260509183028 53 91 0.9 3.5 0.00 0.04 0.04 85 1012.3
20260509182548 53 82 0.9 3.5 0.00 0.04 0.04 84 1012.7
20260509182028 53 82 0.9 2.6 0.00 0.04 0.04 83 1013.3
20260509181528 53 80 0.0 0.9 0.00 0.04 0.04 83 1013.4
20260509181028 53 90 0.0 1.7 0.00 0.04 0.04 83 1013.5
20260509180527 53 111 0.0 1.7 0.00 0.04 0.04 82 1013.6
20260509180027 53 138 0.0 2.6 0.00 0.04 0.04 82 1013.5
20260509175547 53 129 0.9 3.5 0.00 0.04 0.04 82 1013.4
20260509175027 53 77 0.9 2.6 0.00 0.04 0.04 81 1013.4
20260509174529 53 98 0.9 3.5 0.00 0.04 0.04 81 1013.2
20260509174049 53 110 1.7 5.2 0.00 0.04 0.04 81 1013.2
20260509173548 53 98 0.9 5.2 0.00 0.04 0.04 81 1013.3
20260509173028 53 79 0.9 3.5 0.00 0.04 0.04 81 1013.5
20260509172528 53 89 1.7 5.2 0.00 0.04 0.04 80 1013.4
20260509172028 53 86 1.7 3.5 0.00 0.04 0.04 81 1013.5
20260509171528 53 74 0.9 2.6 0.00 0.04 0.04 79 1013.4
20260509171048 53 84 0.9 3.5 0.00 0.04 0.04 80 1013.5
20260509170528 53 90 1.7 5.2 0.00 0.04 0.04 78 1013.6
20260509170028 53 109 0.9 5.2 0.00 0.04 0.04 77 1013.7
20260509165527 53 94 0.9 1.7 0.00 0.04 0.04 77 1013.5
20260509165027 53 75 0.9 5.2 0.00 0.04 0.04 77 1013.6
20260509164527 53 87 0.9 2.6 0.00 0.04 0.04 76 1013.7
20260509164027 53 93 0.9 2.6 0.00 0.04 0.04 76 1013.8
20260509163527 53 100 0.9 2.6 0.01 0.04 0.04 76 1013.9